Regional Weather Roundup
Issued by NWS

Home | Current Version | Previous Version | Graphics & Text | Print | Product List | Glossary On
Versions: 1 2 3 4 5 6 7 8 9 10 11 12 13 14 15 16 17 18 19 20 21 22 23 24 25 26 27 28 29 30 31 32 33 34 35 36 37 38 39 40 41 42 43 44 45 46 47 48 49 50
000
ASUS43 KLSX 170107
RWRMO

WEATHER SUMMARY FOR MISSOURI
NATIONAL WEATHER SERVICE SPRINGFIELD MO
800 PM CDT TUE SEP 16 2014

NOTE: "FAIR" INDICATES FEW OR NO CLOUDS BELOW 12,000 FEET WITH NO
       SIGNIFICANT WEATHER AND/OR OBSTRUCTIONS TO VISIBILITY.
       CURRENT SKY AND/OR WEATHER CONDITIONS ARE NOT AVAILABLE FOR
       CHILLICOTHE AND FARMINGTON.

MOZ001>031-035>038-043-044-053-054-170200-
...NORTHERN AND WESTERN MISSOURI...

CITY           SKY/WX    TMP DP  RH WIND       PRES   REMARKS
KANSAS CTY INT PTCLDY    65  52  62 E8        30.04S
KANSAS C DTWN  CLEAR     69  53  56 SE7       30.03S
LEE`S SUMMIT   CLEAR     65  54  67 SE5       30.05S
ST JOSEPH      CLEAR     60  53  77 SE5       30.04S
CHILLICOTHE      N/A     58  55  90 CALM      30.07S
KIRKSVILLE     CLEAR     54  51  90 CALM      30.08F

$$
MOZ066>068-077>081-088>096-101>105-170200-
...SOUTHWEST MISSOURI...

CITY           SKY/WX    TMP DP  RH WIND       PRES   REMARKS
SPRINGFIELD    PTCLDY    66  62  87 S8        30.06S
JOPLIN         CLOUDY    71  65  81 MISG      30.04F

$$
MOZ032>034-039>042-045>050-055>058-069>072-170200-
...CENTRAL MISSOURI...

CITY           SKY/WX    TMP DP  RH WIND       PRES   REMARKS
COLUMBIA       PTCLDY    60  54  80 E6        30.08S
JEFFERSON CITY CLEAR     63  54  72 E3        30.07S
ROLLA          FOG       57  53  86 SE6       30.08S VSB 1
SEDALIA        CLEAR     63  55  75 SE5       30.06F
OSAGE BEACH    CLEAR     63  55  77 CALM      30.08S

$$
MOZ051-052-059>065-170200-
...EAST CENTRAL MISSOURI...

CITY           SKY/WX    TMP DP  RH WIND       PRES   REMARKS
ST LOUIS INTL  PTCLDY    59  51  75 E6        30.10F
SPIRIT OF STL  CLEAR     57  54  89 CALM      30.09S
ST CHARLES     CLEAR     55  51  86 E5        30.10S

$$
MOZ072>076-082>087-097>100-106>115-170200-
...SOUTH CENTRAL AND SOUTHEAST MISSOURI...

CITY           SKY/WX    TMP DP  RH WIND       PRES   REMARKS
CAPE GIRARDEAU CLEAR     58  53  84 E5        30.10S
FARMINGTON     PTCLDY    59  54  82 E5        30.11S
POPLAR BLUFF   CLOUDY    66  56  70 NE3       30.07S
WEST PLAINS    CLOUDY    64  59  83 SE3       30.10S

$$


USA.gov is the U.S. government's official web portal to all federal, state and local government web resources and services.